Year,Month,Day,Hour,Minute,Value (Times are PST for temperature in C)
2011,02,23,00,00,-0.50
2011,02,23,00,01,-0.50
2011,02,23,00,02,-0.50
2011,02,23,00,03,-0.50
2011,02,23,00,04,-0.50
2011,02,23,00,05,-0.50
2011,02,23,00,06,-0.50
2011,02,23,00,07,-0.50
2011,02,23,00,08,-0.50
2011,02,23,00,09,-0.50
2011,02,23,00,10,-0.60
2011,02,23,00,11,-0.60
2011,02,23,00,12,-0.60
2011,02,23,00,13,-0.60
2011,02,23,00,14,-0.60
2011,02,23,00,15,-0.60
2011,02,23,00,16,-0.60
2011,02,23,00,17,-0.60
2011,02,23,00,18,-0.60
2011,02,23,00,19,-0.60
2011,02,23,00,20,-0.60
2011,02,23,00,21,-0.60
2011,02,23,00,22,-0.60
2011,02,23,00,23,-0.70
2011,02,23,00,24,-0.70
2011,02,23,00,25,-0.70
2011,02,23,00,26,-0.70
2011,02,23,00,27,-0.70
2011,02,23,00,28,-0.70
2011,02,23,00,29,-0.80
2011,02,23,00,30,-0.80
2011,02,23,00,31,-0.80
2011,02,23,00,32,-0.80
2011,02,23,00,33,-0.80
2011,02,23,00,34,-0.80
2011,02,23,00,35,-0.80
2011,02,23,00,36,-0.80
2011,02,23,00,37,-0.80
2011,02,23,00,38,-0.80
2011,02,23,00,39,-0.80
2011,02,23,00,40,-0.80
2011,02,23,00,41,-0.80
2011,02,23,00,42,-0.80
2011,02,23,00,43,-0.80
2011,02,23,00,44,-0.80
2011,02,23,00,45,-0.90
2011,02,23,00,46,-0.90
2011,02,23,00,47,-0.90
2011,02,23,00,48,-0.90
2011,02,23,00,49,-0.90
2011,02,23,00,50,-0.90
2011,02,23,00,51,-0.90
2011,02,23,00,52,-0.90
2011,02,23,00,53,-0.90
2011,02,23,00,54,-0.90
2011,02,23,00,55,-0.90
2011,02,23,00,56,-0.90
2011,02,23,00,57,-0.90
2011,02,23,00,58,-0.90
2011,02,23,00,59,-0.90
2011,02,23,01,00,-0.90
2011,02,23,01,01,-0.90
2011,02,23,01,02,-0.90
2011,02,23,01,03,-0.90
2011,02,23,01,04,-0.90
2011,02,23,01,05,-0.90
2011,02,23,01,06,-0.90
2011,02,23,01,07,-0.90
2011,02,23,01,08,-0.90
2011,02,23,01,09,-0.90
2011,02,23,01,10,-0.90
2011,02,23,01,11,-0.90
2011,02,23,01,12,-0.90
2011,02,23,01,13,-0.90
2011,02,23,01,14,-0.90
2011,02,23,01,15,-0.90
2011,02,23,01,16,-0.80
2011,02,23,01,17,-0.80
2011,02,23,01,18,-0.80
2011,02,23,01,19,-0.80
2011,02,23,01,20,-0.70
2011,02,23,01,21,-0.70
2011,02,23,01,22,-0.70
2011,02,23,01,23,-0.70
2011,02,23,01,24,-0.70
2011,02,23,01,25,-0.60
2011,02,23,01,26,-0.60
2011,02,23,01,27,-0.60
2011,02,23,01,28,-0.60
2011,02,23,01,29,-0.60
2011,02,23,01,30,-0.60
2011,02,23,01,31,-0.60
2011,02,23,01,32,-0.60
2011,02,23,01,33,-0.60
2011,02,23,01,34,-0.50
2011,02,23,01,35,-0.50
2011,02,23,01,36,-0.50
2011,02,23,01,37,-0.40
2011,02,23,01,38,-0.40
2011,02,23,01,39,-0.40
2011,02,23,01,40,-0.40
2011,02,23,01,41,-0.40
2011,02,23,01,42,-0.40
2011,02,23,01,43,-0.40
2011,02,23,01,44,-0.30
2011,02,23,01,45,-0.30
2011,02,23,01,46,-0.30
2011,02,23,01,47,-0.30
2011,02,23,01,48,-0.30
2011,02,23,01,49,-0.30
2011,02,23,01,50,-0.30
2011,02,23,01,51,-0.30
2011,02,23,01,52,-0.30
2011,02,23,01,53,-0.30
2011,02,23,01,54,-0.30
2011,02,23,01,55,-0.30
2011,02,23,01,56,-0.30
2011,02,23,01,57,-0.30
2011,02,23,01,58,-0.30
2011,02,23,01,59,-0.30
2011,02,23,02,00,-0.30
2011,02,23,02,01,-0.30
2011,02,23,02,02,-0.20
2011,02,23,02,03,-0.20
2011,02,23,02,04,-0.20
2011,02,23,02,05,-0.20
2011,02,23,02,06,-0.20
2011,02,23,02,07,-0.20
2011,02,23,02,08,-0.20
2011,02,23,02,09,-0.20
2011,02,23,02,10,-0.10
2011,02,23,02,11,-0.10
2011,02,23,02,12,0.00
2011,02,23,02,13,0.10
2011,02,23,02,14,0.20
2011,02,23,02,15,0.40
2011,02,23,02,16,0.50
2011,02,23,02,17,0.60
2011,02,23,02,18,0.60
2011,02,23,02,19,0.70
2011,02,23,02,20,0.80
2011,02,23,02,21,0.80
2011,02,23,02,22,0.90
2011,02,23,02,23,0.90
2011,02,23,02,24,1.00
2011,02,23,02,25,1.00
2011,02,23,02,26,1.10
2011,02,23,02,27,1.10
2011,02,23,02,28,1.10
2011,02,23,02,29,1.10
2011,02,23,02,30,1.10
2011,02,23,02,31,1.10
2011,02,23,02,32,1.20
2011,02,23,02,33,1.20
2011,02,23,02,34,1.20
2011,02,23,02,35,1.20
2011,02,23,02,36,1.20
2011,02,23,02,37,1.20
2011,02,23,02,38,1.20
2011,02,23,02,39,1.20
2011,02,23,02,40,1.20
2011,02,23,02,41,1.20
2011,02,23,02,42,1.20
2011,02,23,02,43,1.20
2011,02,23,02,44,1.20
2011,02,23,02,45,1.20
2011,02,23,02,46,1.20
2011,02,23,02,47,1.20
2011,02,23,02,48,1.20
2011,02,23,02,49,1.20
2011,02,23,02,50,1.20
2011,02,23,02,51,1.20
2011,02,23,02,52,1.20
2011,02,23,02,53,1.20
2011,02,23,02,54,1.20
2011,02,23,02,55,1.20
2011,02,23,02,56,1.20
2011,02,23,02,57,1.10
2011,02,23,02,58,1.10
2011,02,23,02,59,1.10
2011,02,23,03,00,1.10
2011,02,23,03,01,1.10
2011,02,23,03,02,1.10
2011,02,23,03,03,1.10
2011,02,23,03,04,1.10
2011,02,23,03,05,1.10
2011,02,23,03,06,1.10
2011,02,23,03,07,1.10
2011,02,23,03,08,1.10
2011,02,23,03,09,1.10
2011,02,23,03,10,1.10
2011,02,23,03,11,1.10
2011,02,23,03,12,1.10
2011,02,23,03,13,1.10
2011,02,23,03,14,1.10
2011,02,23,03,15,1.10
2011,02,23,03,16,1.10
2011,02,23,03,17,1.10
2011,02,23,03,18,1.20
2011,02,23,03,19,1.20
2011,02,23,03,20,1.20
2011,02,23,03,21,1.30
2011,02,23,03,22,1.30
2011,02,23,03,23,1.30
2011,02,23,03,24,1.30
2011,02,23,03,25,1.30
2011,02,23,03,26,1.30
2011,02,23,03,27,1.30
2011,02,23,03,28,1.30
2011,02,23,03,29,1.30
2011,02,23,03,30,1.30
2011,02,23,03,31,1.30
2011,02,23,03,32,1.30
2011,02,23,03,33,1.30
2011,02,23,03,34,1.30
2011,02,23,03,35,1.30
2011,02,23,03,36,1.30
2011,02,23,03,37,1.30
2011,02,23,03,38,1.30
2011,02,23,03,39,1.30
2011,02,23,03,40,1.30
2011,02,23,03,41,1.30
2011,02,23,03,42,1.30
2011,02,23,03,43,1.30
2011,02,23,03,44,1.30
2011,02,23,03,45,1.30
2011,02,23,03,46,1.30
2011,02,23,03,47,1.30
2011,02,23,03,48,1.30
2011,02,23,03,49,1.30
2011,02,23,03,50,1.30
2011,02,23,03,51,1.30
2011,02,23,03,52,1.30
2011,02,23,03,53,1.30
2011,02,23,03,54,1.30
2011,02,23,03,55,1.30
2011,02,23,03,56,1.30
2011,02,23,03,57,1.30
2011,02,23,03,58,1.30
2011,02,23,03,59,1.20
2011,02,23,04,00,1.20
2011,02,23,04,01,1.20
2011,02,23,04,02,1.20
2011,02,23,04,03,1.20
2011,02,23,04,04,1.20
2011,02,23,04,05,1.20
2011,02,23,04,06,1.20
2011,02,23,04,07,1.20
2011,02,23,04,08,1.20
2011,02,23,04,09,1.20
2011,02,23,04,10,1.20
2011,02,23,04,11,1.20
2011,02,23,04,12,1.20
2011,02,23,04,13,1.20
2011,02,23,04,14,1.10
2011,02,23,04,15,1.10
2011,02,23,04,16,1.10
2011,02,23,04,17,1.10
2011,02,23,04,18,1.10
2011,02,23,04,19,1.10
2011,02,23,04,20,1.10
2011,02,23,04,21,1.00
2011,02,23,04,22,1.00
2011,02,23,04,23,1.00
2011,02,23,04,24,1.00
2011,02,23,04,25,1.00
2011,02,23,04,26,1.00
2011,02,23,04,27,1.00
2011,02,23,04,28,1.00
2011,02,23,04,29,0.90
2011,02,23,04,30,0.90
2011,02,23,04,31,0.90
2011,02,23,04,32,0.90
2011,02,23,04,33,0.90
2011,02,23,04,34,1.00
2011,02,23,04,35,1.00
2011,02,23,04,36,1.00
2011,02,23,04,37,1.00
2011,02,23,04,38,1.00
2011,02,23,04,39,1.00
2011,02,23,04,40,1.00
2011,02,23,04,41,1.00
2011,02,23,04,42,1.00
2011,02,23,04,43,1.00
2011,02,23,04,44,1.00
2011,02,23,04,45,1.00
2011,02,23,04,46,1.00
2011,02,23,04,47,1.00
2011,02,23,04,48,1.00
2011,02,23,04,49,1.00
2011,02,23,04,50,1.00
2011,02,23,04,51,0.90
2011,02,23,04,52,0.90
2011,02,23,04,53,0.90
2011,02,23,04,54,0.90
2011,02,23,04,55,0.90
2011,02,23,04,56,0.90
2011,02,23,04,57,0.90
2011,02,23,04,58,0.90
2011,02,23,04,59,0.80
2011,02,23,05,00,0.80
2011,02,23,05,01,0.80
2011,02,23,05,02,0.80
2011,02,23,05,03,0.80
2011,02,23,05,04,0.80
2011,02,23,05,05,0.80
2011,02,23,05,06,0.70
2011,02,23,05,07,0.70
2011,02,23,05,08,0.70
2011,02,23,05,09,0.70
2011,02,23,05,10,0.70
2011,02,23,05,11,0.70
2011,02,23,05,12,0.70
2011,02,23,05,13,0.70
2011,02,23,05,14,0.70
2011,02,23,05,15,0.70
2011,02,23,05,16,0.70
2011,02,23,05,17,0.70
2011,02,23,05,18,0.70
2011,02,23,05,19,0.70
2011,02,23,05,20,0.70
2011,02,23,05,21,0.70
2011,02,23,05,22,0.70
2011,02,23,05,23,0.70
2011,02,23,05,24,0.70
2011,02,23,05,25,0.70
2011,02,23,05,26,0.70
2011,02,23,05,27,0.70
2011,02,23,05,28,0.70
2011,02,23,05,29,0.70
2011,02,23,05,30,0.70
2011,02,23,05,31,0.70
2011,02,23,05,32,0.70
2011,02,23,05,33,0.70
2011,02,23,05,34,0.70
2011,02,23,05,35,0.70
2011,02,23,05,36,0.70
2011,02,23,05,37,0.60
2011,02,23,05,38,0.60
2011,02,23,05,39,0.50
2011,02,23,05,40,0.50
2011,02,23,05,41,0.40
2011,02,23,05,42,0.40
2011,02,23,05,43,0.30
2011,02,23,05,44,0.30
2011,02,23,05,45,0.20
2011,02,23,05,46,0.20
2011,02,23,05,47,0.20
2011,02,23,05,48,0.20
2011,02,23,05,49,0.20
2011,02,23,05,50,0.20
2011,02,23,05,51,0.20
2011,02,23,05,52,0.20
2011,02,23,05,53,0.20
2011,02,23,05,54,0.10
2011,02,23,05,55,0.10
2011,02,23,05,56,0.10
2011,02,23,05,57,0.10
2011,02,23,05,58,0.10
2011,02,23,05,59,0.10
2011,02,23,06,00,0.10
2011,02,23,06,01,0.10
2011,02,23,06,02,0.10
2011,02,23,06,03,0.10
2011,02,23,06,04,0.10
2011,02,23,06,05,0.10
2011,02,23,06,06,0.10
2011,02,23,06,07,0.10
2011,02,23,06,08,0.10
2011,02,23,06,09,0.10
2011,02,23,06,10,0.10
2011,02,23,06,11,0.10
2011,02,23,06,12,0.10
2011,02,23,06,13,0.10
2011,02,23,06,14,0.10
2011,02,23,06,15,0.10
2011,02,23,06,16,0.10
2011,02,23,06,17,0.10
2011,02,23,06,18,0.10
2011,02,23,06,19,0.10
2011,02,23,06,20,0.10
2011,02,23,06,21,0.10
2011,02,23,06,22,0.10
2011,02,23,06,23,0.10
2011,02,23,06,24,0.10
2011,02,23,06,25,0.10
2011,02,23,06,26,0.00
2011,02,23,06,27,0.00
2011,02,23,06,28,0.00
2011,02,23,06,29,0.00
2011,02,23,06,30,0.00
2011,02,23,06,31,0.00
2011,02,23,06,32,0.00
2011,02,23,06,33,0.00
2011,02,23,06,34,0.00
2011,02,23,06,35,0.00
2011,02,23,06,36,0.00
2011,02,23,06,37,0.00
2011,02,23,06,38,0.00
2011,02,23,06,39,0.00
2011,02,23,06,40,0.00
2011,02,23,06,41,0.00
2011,02,23,06,42,0.00
2011,02,23,06,43,-0.10
2011,02,23,06,44,-0.10
2011,02,23,06,45,-0.10
2011,02,23,06,46,-0.10
2011,02,23,06,47,-0.20
2011,02,23,06,48,-0.20
2011,02,23,06,49,-0.20
2011,02,23,06,50,-0.30
2011,02,23,06,51,-0.30
2011,02,23,06,52,-0.30
2011,02,23,06,53,-0.30
2011,02,23,06,54,-0.30
2011,02,23,06,55,-0.40
2011,02,23,06,56,-0.40
2011,02,23,06,57,-0.40
2011,02,23,06,58,-0.40
2011,02,23,06,59,-0.40
2011,02,23,07,00,-0.40
2011,02,23,07,01,-0.50
2011,02,23,07,02,-0.50
2011,02,23,07,03,-0.60
2011,02,23,07,04,-0.60
2011,02,23,07,05,-0.60
2011,02,23,07,06,-0.60
2011,02,23,07,07,-0.70
2011,02,23,07,08,-0.70
2011,02,23,07,09,-0.70
2011,02,23,07,10,-0.70
2011,02,23,07,11,-0.70
2011,02,23,07,12,-0.70
2011,02,23,07,13,-0.80
2011,02,23,07,14,-0.80
2011,02,23,07,15,-0.80
2011,02,23,07,16,-0.80
2011,02,23,07,17,-0.80
2011,02,23,07,18,-0.80
2011,02,23,07,19,-0.80
2011,02,23,07,20,-0.80
2011,02,23,07,21,-0.80
2011,02,23,07,22,-0.80
2011,02,23,07,23,-0.80
2011,02,23,07,24,-0.80
2011,02,23,07,25,-0.80
2011,02,23,07,26,-0.80
2011,02,23,07,27,-0.80
2011,02,23,07,28,-0.70
2011,02,23,07,29,-0.70
2011,02,23,07,30,-0.70
2011,02,23,07,31,-0.70
2011,02,23,07,32,-0.70
2011,02,23,07,33,-0.70
2011,02,23,07,34,-0.70
2011,02,23,07,35,-0.70
2011,02,23,07,36,-0.70
2011,02,23,07,37,-0.70
2011,02,23,07,38,-0.70
2011,02,23,07,39,-0.70
2011,02,23,07,40,-0.70
2011,02,23,07,41,-0.70
2011,02,23,07,42,-0.70
2011,02,23,07,43,-0.70
2011,02,23,07,44,-0.70
2011,02,23,07,45,-0.70
2011,02,23,07,46,-0.70
2011,02,23,07,47,-0.70
2011,02,23,07,48,-0.70
2011,02,23,07,49,-0.70
2011,02,23,07,50,-0.70
2011,02,23,07,51,-0.70
2011,02,23,07,52,-0.70
2011,02,23,07,53,-0.70
2011,02,23,07,54,-0.70
2011,02,23,07,55,-0.70
2011,02,23,07,56,-0.70
2011,02,23,07,57,-0.70
2011,02,23,07,58,-0.70
2011,02,23,07,59,-0.70
2011,02,23,08,00,-0.70
2011,02,23,08,01,-0.70
2011,02,23,08,02,-0.70
2011,02,23,08,03,-0.70
2011,02,23,08,04,-0.70
2011,02,23,08,05,-0.70
2011,02,23,08,06,-0.70
2011,02,23,08,07,-0.70
2011,02,23,08,08,-0.70
2011,02,23,08,09,-0.70
2011,02,23,08,10,-0.70
2011,02,23,08,11,-0.60
2011,02,23,08,12,-0.60
2011,02,23,08,13,-0.60
2011,02,23,08,14,-0.60
2011,02,23,08,15,-0.60
2011,02,23,08,16,-0.60
2011,02,23,08,17,-0.60
2011,02,23,08,18,-0.60
2011,02,23,08,19,-0.60
2011,02,23,08,20,-0.60
2011,02,23,08,21,-0.60
2011,02,23,08,22,-0.60
2011,02,23,08,23,-0.60
2011,02,23,08,24,-0.60
2011,02,23,08,25,-0.60
2011,02,23,08,26,-0.60
2011,02,23,08,27,-0.60
2011,02,23,08,28,-0.60
2011,02,23,08,29,-0.60
2011,02,23,08,30,-0.60
2011,02,23,08,31,-0.60
2011,02,23,08,32,-0.60
2011,02,23,08,33,-0.60
2011,02,23,08,34,-0.60
2011,02,23,08,35,-0.60
2011,02,23,08,36,-0.60
2011,02,23,08,37,-0.60
2011,02,23,08,38,-0.60
2011,02,23,08,39,-0.60
2011,02,23,08,40,-0.60
2011,02,23,08,41,-0.60
2011,02,23,08,42,-0.60
2011,02,23,08,43,-0.60
2011,02,23,08,44,-0.60
2011,02,23,08,45,-0.60
2011,02,23,08,46,-0.60
2011,02,23,08,47,-0.60
2011,02,23,08,48,-0.60
2011,02,23,08,49,-0.60
2011,02,23,08,50,-0.60
2011,02,23,08,51,-0.60
2011,02,23,08,52,-0.60
2011,02,23,08,53,-0.50
2011,02,23,08,54,-0.50
2011,02,23,08,55,-0.50
2011,02,23,08,56,-0.50
2011,02,23,08,57,-0.50
2011,02,23,08,58,-0.40
2011,02,23,08,59,-0.40
2011,02,23,09,00,-0.40
2011,02,23,09,01,-0.40
2011,02,23,09,02,-0.40
2011,02,23,09,03,-0.40
2011,02,23,09,04,-0.40
2011,02,23,09,05,-0.40
2011,02,23,09,06,-0.40
2011,02,23,09,07,-0.40
2011,02,23,09,08,-0.40
2011,02,23,09,09,-0.40
2011,02,23,09,10,-0.40
2011,02,23,09,11,-0.30
2011,02,23,09,12,-0.30
2011,02,23,09,13,-0.30
2011,02,23,09,14,-0.30
2011,02,23,09,15,-0.40
2011,02,23,09,16,-0.40
2011,02,23,09,17,-0.40
2011,02,23,09,18,-0.40
2011,02,23,09,19,-0.40
2011,02,23,09,20,-0.40
2011,02,23,09,21,-0.40
2011,02,23,09,22,-0.40
2011,02,23,09,23,-0.30
2011,02,23,09,24,-0.30
2011,02,23,09,25,-0.30
2011,02,23,09,26,-0.30
2011,02,23,09,27,-0.20
2011,02,23,09,28,-0.20
2011,02,23,09,29,-0.20
2011,02,23,09,30,-0.20
2011,02,23,09,31,-0.20
2011,02,23,09,32,-0.10
2011,02,23,09,33,-0.10
2011,02,23,09,34,-0.10
2011,02,23,09,35,0.00
2011,02,23,09,36,0.00
2011,02,23,09,37,0.10
2011,02,23,09,38,0.10
2011,02,23,09,39,0.10
2011,02,23,09,40,0.20
2011,02,23,09,41,0.20
2011,02,23,09,42,0.20
2011,02,23,09,43,0.20
2011,02,23,09,44,0.20
2011,02,23,09,45,0.20
2011,02,23,09,46,0.20
2011,02,23,09,47,0.10
2011,02,23,09,48,0.10
2011,02,23,09,49,0.00
2011,02,23,09,50,0.00
2011,02,23,09,51,-0.10
2011,02,23,09,52,-0.10
2011,02,23,09,53,-0.10
2011,02,23,09,54,-0.10
2011,02,23,09,55,0.00
2011,02,23,09,56,0.00
2011,02,23,09,57,0.00
2011,02,23,09,58,0.00
2011,02,23,09,59,-0.10
2011,02,23,10,00,-0.10
2011,02,23,10,01,-0.10
2011,02,23,10,02,-0.10
2011,02,23,10,03,-0.10
2011,02,23,10,04,-0.10
2011,02,23,10,05,-0.10
2011,02,23,10,06,-0.10
2011,02,23,10,07,-0.10
2011,02,23,10,08,-0.10
2011,02,23,10,09,-0.10
2011,02,23,10,10,-0.10
2011,02,23,10,11,-0.10
2011,02,23,10,12,-0.10
2011,02,23,10,13,-0.10
2011,02,23,10,14,0.00
2011,02,23,10,15,0.00
2011,02,23,10,16,-0.10
2011,02,23,10,17,-0.10
2011,02,23,10,18,-0.10
2011,02,23,10,19,-0.20
2011,02,23,10,20,-0.20
2011,02,23,10,21,-0.20
2011,02,23,10,22,-0.20
2011,02,23,10,23,-0.20
2011,02,23,10,24,-0.10
2011,02,23,10,25,-0.10
2011,02,23,10,26,-0.10
2011,02,23,10,27,-0.20
2011,02,23,10,28,-0.20
2011,02,23,10,29,-0.20
2011,02,23,10,30,-0.20
2011,02,23,10,31,-0.30
2011,02,23,10,32,-0.30
2011,02,23,10,33,-0.30
2011,02,23,10,34,-0.30
2011,02,23,10,35,-0.30
2011,02,23,10,36,-0.30
2011,02,23,10,37,-0.30
2011,02,23,10,38,-0.30
2011,02,23,10,39,-0.30
2011,02,23,10,40,-0.30
2011,02,23,10,41,-0.40
2011,02,23,10,42,-0.40
2011,02,23,10,43,-0.40
2011,02,23,10,44,-0.40
2011,02,23,10,45,-0.40
2011,02,23,10,46,-0.40
2011,02,23,10,47,-0.40
2011,02,23,10,48,-0.40
2011,02,23,10,49,-0.40
2011,02,23,10,50,-0.50
2011,02,23,10,51,-0.50
2011,02,23,10,52,-0.50
2011,02,23,10,53,-0.60
2011,02,23,10,54,-0.60
2011,02,23,10,55,-0.60
2011,02,23,10,56,-0.60
2011,02,23,10,57,-0.60
2011,02,23,10,58,-0.60
2011,02,23,10,59,-0.70
2011,02,23,11,00,-0.70
2011,02,23,11,01,-0.70
2011,02,23,11,02,-0.70
2011,02,23,11,03,-0.70
2011,02,23,11,04,-0.70
2011,02,23,11,05,-0.70
2011,02,23,11,06,-0.80
2011,02,23,11,07,-0.70
2011,02,23,11,08,-0.70
2011,02,23,11,09,-0.70
2011,02,23,11,10,-0.80
2011,02,23,11,11,-0.80
2011,02,23,11,12,-0.80
2011,02,23,11,13,-0.80
2011,02,23,11,14,-0.80
2011,02,23,11,15,-0.90
2011,02,23,11,16,-0.90
2011,02,23,11,17,-0.90
2011,02,23,11,18,-0.90
2011,02,23,11,19,-0.90
2011,02,23,11,20,-1.00
2011,02,23,11,21,-1.00
2011,02,23,11,22,-1.00
2011,02,23,11,23,-1.00
2011,02,23,11,24,-1.10
2011,02,23,11,25,-1.10
2011,02,23,11,26,-1.10
2011,02,23,11,27,-1.10
2011,02,23,11,28,-1.10
2011,02,23,11,29,-1.10
2011,02,23,11,30,-1.10
2011,02,23,11,31,-1.10
2011,02,23,11,32,-1.10
2011,02,23,11,33,-1.10
2011,02,23,11,34,-1.20
2011,02,23,11,35,-1.20
2011,02,23,11,36,-1.20
2011,02,23,11,37,-1.20
2011,02,23,11,38,-1.20
2011,02,23,11,39,-1.30
2011,02,23,11,40,-1.30
2011,02,23,11,41,-1.30
2011,02,23,11,42,-1.30
2011,02,23,11,43,-1.30
2011,02,23,11,44,-1.40
2011,02,23,11,45,-1.40
2011,02,23,11,46,-1.50
2011,02,23,11,47,-1.50
2011,02,23,11,48,-1.50
2011,02,23,11,49,-1.50
2011,02,23,11,50,-1.50
2011,02,23,11,51,-1.40
2011,02,23,11,52,-1.40
2011,02,23,11,53,-1.40
2011,02,23,11,54,-1.40
2011,02,23,11,55,-1.40
2011,02,23,11,56,-1.40
2011,02,23,11,57,-1.40
2011,02,23,11,58,-1.40
2011,02,23,11,59,-1.40
2011,02,23,12,00,-1.40
2011,02,23,12,01,-1.30
2011,02,23,12,02,-1.30
2011,02,23,12,03,-1.30
2011,02,23,12,04,-1.30
2011,02,23,12,05,-1.30
2011,02,23,12,06,-1.30
2011,02,23,12,07,-1.30
2011,02,23,12,08,-1.30
2011,02,23,12,09,-1.30
2011,02,23,12,10,-1.30
2011,02,23,12,11,-1.30
2011,02,23,12,12,-1.30
2011,02,23,12,13,-1.30
2011,02,23,12,14,-1.20
2011,02,23,12,15,-1.20
2011,02,23,12,16,-1.20
2011,02,23,12,17,-1.20
2011,02,23,12,18,-1.30
2011,02,23,12,19,-1.30
2011,02,23,12,20,-1.30
2011,02,23,12,21,-1.30
2011,02,23,12,22,-1.30
2011,02,23,12,23,-1.40
2011,02,23,12,24,-1.40
2011,02,23,12,25,-1.40
2011,02,23,12,26,-1.40
2011,02,23,12,27,-1.40
2011,02,23,12,28,-1.40
2011,02,23,12,29,-1.40
2011,02,23,12,30,-1.40
2011,02,23,12,31,-1.40
2011,02,23,12,32,-1.40
2011,02,23,12,33,-1.40
2011,02,23,12,34,-1.40
2011,02,23,12,35,-1.40
2011,02,23,12,36,-1.40
2011,02,23,12,37,-1.40
2011,02,23,12,38,-1.50
2011,02,23,12,39,-1.50
2011,02,23,12,40,-1.50
2011,02,23,12,41,-1.50
2011,02,23,12,42,-1.50
2011,02,23,12,43,-1.50
2011,02,23,12,44,-1.50
2011,02,23,12,45,-1.50
2011,02,23,12,46,-1.50
2011,02,23,12,47,-1.60
2011,02,23,12,48,-1.60
2011,02,23,12,49,-1.60
2011,02,23,12,50,-1.60
2011,02,23,12,51,-1.70
2011,02,23,12,52,-1.70
2011,02,23,12,53,-1.70
2011,02,23,12,54,-1.70
2011,02,23,12,55,-1.70
2011,02,23,12,56,-1.70
2011,02,23,12,57,-1.80
2011,02,23,12,58,-1.80
2011,02,23,12,59,-1.80
2011,02,23,13,00,-1.80
2011,02,23,13,01,-1.80
2011,02,23,13,02,-1.80
2011,02,23,13,03,-1.80
2011,02,23,13,04,-1.80
2011,02,23,13,05,-1.80
2011,02,23,13,06,-1.80
2011,02,23,13,07,-1.80
2011,02,23,13,08,-1.80
2011,02,23,13,09,-1.80
2011,02,23,13,10,-1.80
2011,02,23,13,11,-1.80
2011,02,23,13,12,-1.80
2011,02,23,13,13,-1.80
2011,02,23,13,14,-1.80
2011,02,23,13,15,-1.80
2011,02,23,13,16,-1.70
2011,02,23,13,17,-1.70
2011,02,23,13,18,-1.70
2011,02,23,13,19,-1.80
2011,02,23,13,20,-1.80
2011,02,23,13,21,-1.80
2011,02,23,13,22,-1.80
2011,02,23,13,23,-1.80
2011,02,23,13,24,-1.80
2011,02,23,13,25,-1.80
2011,02,23,13,26,-1.80
2011,02,23,13,27,-1.80
2011,02,23,13,28,-1.80
2011,02,23,13,29,-1.80
2011,02,23,13,30,-1.80
2011,02,23,13,31,-1.80
2011,02,23,13,32,-1.90
2011,02,23,13,33,-1.90
2011,02,23,13,34,-1.90
2011,02,23,13,35,-1.90
2011,02,23,13,36,-1.90
2011,02,23,13,37,-1.90
2011,02,23,13,38,-1.90
2011,02,23,13,39,-1.90
2011,02,23,13,40,-1.90
2011,02,23,13,41,-1.90
2011,02,23,13,42,-1.90
2011,02,23,13,43,-1.90
2011,02,23,13,44,-2.00
2011,02,23,13,45,-2.00
2011,02,23,13,46,-2.00
2011,02,23,13,47,-2.00
2011,02,23,13,48,-2.00
2011,02,23,13,49,-2.00
2011,02,23,13,50,-2.00
2011,02,23,13,51,-1.90
2011,02,23,13,52,-1.90
2011,02,23,13,53,-1.90
2011,02,23,13,54,-1.90
2011,02,23,13,55,-1.90
2011,02,23,13,56,-1.90
2011,02,23,13,57,-1.80
2011,02,23,13,58,-1.80
2011,02,23,13,59,-1.80
2011,02,23,14,00,-1.80
2011,02,23,14,01,-1.80
2011,02,23,14,02,-1.80
2011,02,23,14,03,-1.90
2011,02,23,14,04,-1.90
2011,02,23,14,05,-1.90
2011,02,23,14,06,-1.90
2011,02,23,14,07,-1.90
2011,02,23,14,08,-1.90
2011,02,23,14,09,-1.80
2011,02,23,14,10,-1.80
2011,02,23,14,11,-1.80
2011,02,23,14,12,-1.80
2011,02,23,14,13,-1.80
2011,02,23,14,14,-1.80
2011,02,23,14,15,-1.80
2011,02,23,14,16,-1.80
2011,02,23,14,17,-1.80
2011,02,23,14,18,-1.80
2011,02,23,14,19,-1.80
2011,02,23,14,20,-1.80
2011,02,23,14,21,-1.80
2011,02,23,14,22,-1.80
2011,02,23,14,23,-1.80
2011,02,23,14,24,-1.80
2011,02,23,14,25,-1.80
2011,02,23,14,26,-1.80
2011,02,23,14,27,-1.70
2011,02,23,14,28,-1.70
2011,02,23,14,29,-1.70
2011,02,23,14,30,-1.70
2011,02,23,14,31,-1.70
2011,02,23,14,32,-1.70
2011,02,23,14,33,-1.70
2011,02,23,14,34,-1.70
2011,02,23,14,35,-1.80
2011,02,23,14,36,-1.80
2011,02,23,14,37,-1.80
2011,02,23,14,38,-1.80
2011,02,23,14,39,-1.80
2011,02,23,14,40,-1.80
2011,02,23,14,41,-1.80
2011,02,23,14,42,-1.90
2011,02,23,14,43,-1.90
2011,02,23,14,44,-1.90
2011,02,23,14,45,-1.90
2011,02,23,14,46,-1.90
2011,02,23,14,47,-1.90
2011,02,23,14,48,-1.90
2011,02,23,14,49,-1.90
2011,02,23,14,50,-1.90
2011,02,23,14,51,-1.90
2011,02,23,14,52,-1.90
2011,02,23,14,53,-1.90
2011,02,23,14,54,-1.90
2011,02,23,14,55,-1.90
2011,02,23,14,56,-1.90
2011,02,23,14,57,-1.90
2011,02,23,14,58,-1.90
2011,02,23,14,59,-1.90
2011,02,23,15,00,-1.90
2011,02,23,15,01,-1.90
2011,02,23,15,02,-1.90
2011,02,23,15,03,-1.90
2011,02,23,15,04,-1.90
2011,02,23,15,05,-1.90
2011,02,23,15,06,-1.90
2011,02,23,15,07,-1.80
2011,02,23,15,08,-1.80
2011,02,23,15,09,-1.80
2011,02,23,15,10,-1.80
2011,02,23,15,11,-1.80
2011,02,23,15,12,-1.80
2011,02,23,15,13,-1.80
2011,02,23,15,14,-1.80
2011,02,23,15,15,-1.80
2011,02,23,15,16,-1.80
2011,02,23,15,17,-1.80
2011,02,23,15,18,-1.80
2011,02,23,15,19,-1.80
2011,02,23,15,20,-1.80
2011,02,23,15,21,-1.80
2011,02,23,15,22,-1.70
2011,02,23,15,23,-1.70
2011,02,23,15,24,-1.70
2011,02,23,15,25,-1.70
2011,02,23,15,26,-1.70
2011,02,23,15,27,-1.70
2011,02,23,15,28,-1.70
2011,02,23,15,29,-1.60
2011,02,23,15,30,-1.60
2011,02,23,15,31,-1.60
2011,02,23,15,32,-1.60
2011,02,23,15,33,-1.60
2011,02,23,15,34,-1.60
2011,02,23,15,35,-1.50
2011,02,23,15,36,-1.50
2011,02,23,15,37,-1.40
2011,02,23,15,38,-1.40
2011,02,23,15,39,-1.30
2011,02,23,15,40,-1.30
2011,02,23,15,41,-1.30
2011,02,23,15,42,-1.30
2011,02,23,15,43,-1.30
2011,02,23,15,44,-1.30
2011,02,23,15,45,-1.30
2011,02,23,15,46,-1.30
2011,02,23,15,47,-1.30
2011,02,23,15,48,-1.30
2011,02,23,15,49,-1.30
2011,02,23,15,50,-1.30
2011,02,23,15,51,-1.30
2011,02,23,15,52,-1.30
2011,02,23,15,53,-1.30
2011,02,23,15,54,-1.30
2011,02,23,15,55,-1.30
2011,02,23,15,56,-1.30
2011,02,23,15,57,-1.30
2011,02,23,15,58,-1.30
2011,02,23,15,59,-1.30
2011,02,23,16,00,-1.20
2011,02,23,16,01,-1.20
2011,02,23,16,02,-1.20
2011,02,23,16,03,-1.20
2011,02,23,16,04,-1.10
2011,02,23,16,05,-1.10
2011,02,23,16,06,-1.10
2011,02,23,16,07,-1.10
2011,02,23,16,08,-1.10
2011,02,23,16,09,-1.10
2011,02,23,16,10,-1.10
2011,02,23,16,11,-1.10
2011,02,23,16,12,-1.10
2011,02,23,16,13,-1.10
2011,02,23,16,14,-1.10
2011,02,23,16,15,-1.10
2011,02,23,16,16,-1.10
2011,02,23,16,17,-1.10
2011,02,23,16,18,-1.10
2011,02,23,16,19,-1.10
2011,02,23,16,20,-1.10
2011,02,23,16,21,-1.00
2011,02,23,16,22,-1.00
2011,02,23,16,23,-1.00
2011,02,23,16,24,-1.00
2011,02,23,16,25,-1.00
2011,02,23,16,26,-1.00
2011,02,23,16,27,-1.00
2011,02,23,16,28,-1.00
2011,02,23,16,29,-1.00
2011,02,23,16,30,-1.00
2011,02,23,16,31,-1.00
2011,02,23,16,32,-1.00
2011,02,23,16,33,-1.00
2011,02,23,16,34,-1.00
2011,02,23,16,35,-1.00
2011,02,23,16,36,-1.00
2011,02,23,16,37,-0.90
2011,02,23,16,38,-0.90
2011,02,23,16,39,-0.90
2011,02,23,16,40,-0.90
2011,02,23,16,41,-0.80
2011,02,23,16,42,-0.80
2011,02,23,16,43,-0.80
2011,02,23,16,44,-0.80
2011,02,23,16,45,-0.80
2011,02,23,16,46,-0.80
2011,02,23,16,47,-0.80
2011,02,23,16,48,-0.80
2011,02,23,16,49,-0.80
2011,02,23,16,50,-0.80
2011,02,23,16,51,-0.80
2011,02,23,16,52,-0.80
2011,02,23,16,53,-0.80
2011,02,23,16,54,-0.80
2011,02,23,16,55,-0.80
2011,02,23,16,56,-0.80
2011,02,23,16,57,-0.80
2011,02,23,16,58,-0.70
2011,02,23,16,59,-0.70
2011,02,23,17,00,-0.70
2011,02,23,17,01,-0.70
2011,02,23,17,02,-0.70
2011,02,23,17,03,-0.70
2011,02,23,17,04,-0.70
2011,02,23,17,05,-0.70
2011,02,23,17,06,-0.70
2011,02,23,17,07,-0.70
2011,02,23,17,08,-0.70
2011,02,23,17,09,-0.70
2011,02,23,17,10,-0.70
2011,02,23,17,11,-0.70
2011,02,23,17,12,-0.70
2011,02,23,17,13,-0.70
2011,02,23,17,14,-0.70
2011,02,23,17,15,-0.60
2011,02,23,17,16,-0.60
2011,02,23,17,17,-0.60
2011,02,23,17,18,-0.60
2011,02,23,17,19,-0.60
2011,02,23,17,20,-0.60
2011,02,23,17,21,-0.60
2011,02,23,17,22,-0.60
2011,02,23,17,23,-0.60
2011,02,23,17,24,-0.60
2011,02,23,17,25,-0.60
2011,02,23,17,26,-0.60
2011,02,23,17,27,-0.60
2011,02,23,17,28,-0.60
2011,02,23,17,29,-0.60
2011,02,23,17,30,-0.60
2011,02,23,17,31,-0.60
2011,02,23,17,32,-0.70